Regional Weather Roundup
Issued by NWS

Home | Current Version | Previous Version | Graphics & Text | Print | Product List | Glossary On
Versions: 1 2 3 4 5 6 7 8 9 10 11 12 13 14 15 16 17 18 19 20 21 22 23 24 25 26 27 28 29 30 31 32 33 34 35 36 37 38 39 40 41 42 43 44 45 46 47 48 49 50
255
ASUS43 KOAX 290902
RWRNE

WEATHER ROUNDUP FOR NEBRASKA
NATIONAL WEATHER SERVICE OMAHA NE
400 AM CDT MON AUG 29 2016

NOTES: SATELLITE DATA IS BEING USED TO AUGMENT CLOUD COVER ABOVE
       12000 FEET.
       "FAIR" INDICATES FEW OR NO CLOUDS BELOW 12,000 FEET WITH NO
       SIGNIFICANT WEATHER AND/OR OBSTRUCTIONS TO VISIBILITY.

  * THESE STATIONS DO NOT REPORT WEATHER SUCH AS RAIN...SNOW OR FOG.

NEZ001>004-019>022-054>056-291000-
NEBRASKA PANHANDLE

CITY           SKY/WX    TMP DP  RH WIND       PRES   REMARKS
SCOTTSBLUFF    PTCLDY    57  52  83 E3        30.17R
ALLIANCE       PTCLDY    56  53  90 S5        30.17R
CHADRON        CLOUDY    57  52  83 CALM      30.13R
KIMBALL        CLOUDY    55  51  86 SW7       30.23S
SIDNEY         CLOUDY    55  50  83 W6        30.21R
$$

NEZ057>060-069>072-079>082-291000-
SOUTHWEST NEBRASKA

CITY           SKY/WX    TMP DP  RH WIND       PRES   REMARKS
NORTH PLATTE   PTCLDY    63  60  90 E7        30.14F
IMPERIAL       CLOUDY    67  62  84 SW7       30.14F
LEXINGTON      CLOUDY    70  64  81 SE12      30.17S
MCCOOK         CLOUDY    66  63  90 E9        30.16R
OGALLALA       PTCLDY    65  60  82 CALM      30.15S
$$

NEZ005>010-023>029-035>040-094-291000-
NORTH CENTRAL NEBRASKA

CITY           SKY/WX    TMP DP  RH WIND       PRES   REMARKS
VALENTINE      CLOUDY    65  57  75 SW7       30.12S
AINSWORTH      CLEAR     65  62  88 S6        30.14R
BROKEN BOW     MOCLDY    68  65  90 S5        30.16R
O`NEILL        CLEAR     70  67  91 S8        30.14S
ORD            PTCLDY    68  62  81 S9        30.14R
THEDFORD       CLEAR     65  60  85 S6        30.16S
$$

NEZ041-046>049-061>064-073>077-083>087-291000-
SOUTH CENTRAL NEBRASKA

CITY           SKY/WX    TMP DP  RH WIND       PRES   REMARKS
GRAND ISLAND   CLOUDY    68  61  78 S16       30.14F
AURORA         LGT RAIN  66  65  97 W7        30.14F
HASTINGS       LGT RAIN  64  62  93 SW5       30.16F
HEBRON         CLOUDY    67  65  92 SW5       30.14F
HOLDREGE       CLOUDY    65  62  90 SE14      30.17F
KEARNEY *      CLOUDY    66  61  82 SE12      30.16F
YORK           CLOUDY    66  64  94 W10       30.12F
$$

NEZ011>018-030>034-042>045-291000-
NORTHEAST NEBRASKA

CITY           SKY/WX    TMP DP  RH WIND       PRES   REMARKS
NORFOLK        CLOUDY    68  65  90 CALM      30.14R
ALBION         CLOUDY    68  64  85 CALM      30.15R
BLAIR          CLOUDY    69  66  93 CALM      30.15S
FREMONT        CLOUDY    69  66  91 CALM      30.16R
TEKAMAH        CLOUDY    67  65  93 CALM      30.14F
WAYNE          CLOUDY    67  66  96 S3        30.15R
$$

NEZ050>053-065>068-078-088>093-291000-
SOUTHEAST NEBRASKA

CITY           SKY/WX    TMP DP  RH WIND       PRES   REMARKS
LINCOLN        CLOUDY    72  68  87 CALM      30.15R
OMAHA EPPLEY   CLOUDY    71  66  84 SE5       30.14S
BEATRICE       PTCLDY    69  68  99 CALM      30.14R FOG
FALLS CITY     MOCLDY    69  68  96 E5        30.13S
NEBRASKA CITY  CLOUDY    68  68 100 SE5       30.15S
PLATTSMOUTH    MOCLDY    69  68  97 CALM      30.16R
$$

NEZ044-045-051>053-067-291000-
OMAHA AREA

CITY           SKY/WX    TMP DP  RH WIND       PRES   REMARKS
OMAHA EPPLEY   CLOUDY    71  66  84 SE5       30.14S
BLAIR          CLOUDY    69  66  93 CALM      30.15S
FREMONT        CLOUDY    69  66  91 CALM      30.16R
MILLARD        CLOUDY    71  67  88 CALM      30.14S
OFFUTT AFB     CLOUDY    69  68  99 E3        30.14R
PLATTSMOUTH    MOCLDY    69  68  97 CALM      30.16R
WAHOO          FAIR      67  65  94 CALM      30.15R
$$




USA.gov is the U.S. government's official web portal to all federal, state and local government web resources and services.